Location: Bartshausen
(51.8454°N, 9.8167°E)
Time: 07:09:54
(UTC+00:00)

Cosmos 2233 Rocket - Pass Details

Date: 08 November 2025
Orbit: 952 x 989 km, 82.9° (Epoch: 11 December)

Event Time Altitude Azimuth Distance (km) Brightness Sun altitude
Rises 05:05:26 0° 347° (NNW) 3,716 6.8 -12.9°
Reaches altitude 10° 05:08:01 10° 343° (NNW) 2,762 6.1 -12.5°
Maximum altitude 05:14:10 55° 268° (W) 1,176 4.1 -11.6°
Drops below altitude 10° 05:20:14 10° 193° (SSW) 2,727 6.4 -10.6°
Sets 05:22:46 0° 189° (S) 3,666 7.1 -10.3°
